Regional Weather Roundup
Issued by NWS

Home | Current Version | Previous Version | Graphics & Text | Print | Product List | Glossary On
Versions: 1 2 3 4 5 6 7 8 9 10 11 12 13 14 15 16 17 18 19 20 21 22 23 24 25 26 27 28 29 30 31 32 33 34 35 36 37 38 39 40 41 42 43 44 45 46 47 48 49 50
557
ASUS43 KFSD 030410
RWRSD

WEATHER ROUNDUP FOR SOUTH DAKOTA
NATIONAL WEATHER SERVICE SIOUX FALLS SD
1000 PM CST FRI DEC 02 2016

NOTE: "FAIR" INDICATES FEW OR NO CLOUDS BELOW 12,000 FEET WITH NO
SIGNIFICANT WEATHER AND/OR OBSTRUCTIONS TO VISIBILITY.


SDZ001>005-009-010-012>017-030500-
NORTHWEST AND NORTH CENTRAL SOUTH DAKOTA

CITY           SKY/WX    TMP DP  RH WIND       PRES   REMARKS
BUFFALO          N/A     24  22  91 S9        30.04F WCI  14
FAITH            N/A     18  18 100 S15       30.16F WCI   4
MOBRIDGE       CLOUDY    30  26  85 SE6       30.19F WCI  24
$$

SDZ012>016-024>037-041>051-057-063-072>074-030500-
SOUTHWEST AND SOUTH CENTRAL SOUTH DAKOTA

CITY           SKY/WX    TMP DP  RH WIND       PRES   REMARKS
RAPID CTY ARPT CLEAR     24  19  81 S5        30.16F WCI  18
PIERRE         FOG       19  17  92 CALM      30.24F VSB 1/2
CUSTER         CLEAR     16  12  84 CALM      30.09F
ELLSWORTH AFB  CLEAR     27  22  80 S9        30.14F WCI  18
PHILIP         CLEAR     14  13  95 W6        30.21F WCI   5
PINE RIDGE     PTCLDY    19  18  95 NW3       30.18S
SPEARFISH      FAIR      21  14  73 S7        30.11F WCI  13
WINNER         FAIR      24  20  84 S5        30.24F WCI  18
$$

SDZ004>011-016>023-039-040-030500-
NORTHEAST SOUTH DAKOTA

CITY           SKY/WX    TMP DP  RH WIND       PRES   REMARKS
ABERDEEN       MOCLDY    22  17  81 CALM      30.28F
WATERTOWN      CLOUDY    25  19  78 W6        30.27R WCI  18
BROOKINGS      CLOUDY    25  20  81 N5        30.28S WCI  19
SISSETON         N/A     27  19  72 N3        30.29F
$$

SDZ017-020-022-023-036>040-048>070-030500-
SOUTHEAST SOUTH DAKOTA

CITY           SKY/WX    TMP DP  RH WIND       PRES   REMARKS
SIOUX FALLS    CLOUDY    30  24  78 CALM      30.30S
HURON          CLOUDY    29  26  89 SE5       30.30S WCI  24
MITCHELL       CLOUDY    31  27  85 NE3       30.31S
YANKTON        CLEAR     30  27  86 CALM      30.30S
$$

ABBREVIATIONS USED IN REMARKS
   TC - TEMPERATURE IN CELSIUS
  WCI - WIND CHILL INDEX
   HX - HEAT INDEX
  VSB - VISIBILITY





USA.gov is the U.S. government's official web portal to all federal, state and local government web resources and services.